FENGYUN 1C DEB, 31495

Orbit data source: Space-Track

FENGYUN 1C DEB, 31495 is space debris in SSO originally from a launch on Mon, 10 May 1999 UTC launched from the Taiyaun Space Center, China (TSC). Fengyun 1C debris stems from the Chinese weather satellite Fengyun-1C, which was intentionally destroyed by a Chinese anti-satellite missile in 2007. This event dramatically increased the amount of space debris, with thousands of trackable fragments posing hazards to satellites and human spaceflight. The Fengyun 1C debris cloud has become a focal point in discussions about space sustainability and the need for international regulations to prevent the creation of new debris.

Loading next visibility...
Identifier
31495, 1999-025BWJ
Orbit
SSO
Country
Flag of CNCN / PRC
Related business
Manufacturer
Unknown
Mission
Spacecraft
Bus & Motor
Unknown
Mass
Unknown
Launch date (UTC)
1999-05-10 (27 years ago)
Launch vehicle
Unknown
Launch site
Taiyaun Space Center, China (TSC)
Object type
Payload
Rocket body
Debris
Shape & HBR
Unknown shape, 0.1 m
Radar Cross Section
Small (<0.1 m²)

Expand to show TLE details & history
Last TLE update: 4 days ago

TLE from 4 days ago
0 FENGYUN 1C DEB
1 31495U 99025BWJ 26234.49593456  .00001812  00000-0  71032-3 0  9997
2 31495  99.0990 124.3724 0024838 163.2816 196.9189 14.30583444670030
Epoch: 2026-08-22T11:54Z
TLE epoch observation values (Epoch: 2026-08-22T11:54:08.745Z)
Latitude
-0.00008°
Longitude
-24.96954°
Altitude
809.738 km
Speed
7.44 km/s
True Right ascension
08h 17m 29s
True Declination
0° 00' 00"
Sunlit
Object was in daylight at epoch
Visualization orbit readout
Latitude
Unknown
Longitude
Unknown
Altitude
Unknown
Speed
Unknown
Apparent Right ascension
Unknown
Apparent Declination
Unknown
Sunlit
N/A
Visualization observer readout
Local Sidereal Time
23:18:36
Azimuth
Unknown
Elevation
Unknown
Doppler factor
Unknown
Orbital elements
Apogee altitude
804.741 km
Perigee altitude
769.148 km
Semi-major axis
7,165.082 km
Eccentricity
0.00248
Inclination
99.099°
RAAN
124.3724°
Arg. of periapsis
163.2816°
True anomaly
196.83632°
Mean anomaly
196.9189°
Eccentric anomaly
196.87758°
Mean motion
3.57859 °/min
Orbital period
100.6 mins
BSTAR
0.00071032
Loading maneuver chart data...
Computing Atmospheric mass density...
Loading historical data...
Loading historical data...
Loading historical data...
Loading historical data...
Loading historical data...
Loading historical data...
Loading historical data...

Documentation

Showing up to 5 results
|